Pottstown, PA

6:23 AM EDT on April 26, 2017 (GMT -0400)
Pottstown Limerick

Weather History for KPTW - October, 2011

Change the Weather History Date:

Tuesday, October 25, 2011

  Actual Average (KRDG) Record (KRDG)
Temperature  
Mean Temperature 54 °F -  
Max Temperature 64 °F 58 °F 79 °F (1963)
Min Temperature 46 °F 39 °F 28 °F (1981)
Degree Days  
Heating Degree Days 10    
Growing Degree Days 4 (Base 50)    
Moisture  
Dew Point 42 °F    
Average Humidity 71    
Maximum Humidity 93    
Minimum Humidity 35    
Precipitation  
Precipitation 0.01 in - - ()
Sea Level Pressure  
Sea Level Pressure 30.07 in    
Wind  
Wind Speed 3 mph (WNW)    
Max Wind Speed 12 mph    
Max Gust Speed 24 mph    
Visibility 8 miles    
Events      
Averages and records for this station are not official NWS values.
T = Trace of Precipitation, MM = Missing Value Source: NWS Daily Summary

Daily Weather History Graph

Daily Weather History Graph

Search for Another Location

Airport or City:

Trip Planner

Search our weather history database for the weather conditions in past years. The results will help you decide how hot, cold, wet, or windy it might be!

Date:

Astronomy

Oct. 25, 2011 Rise Set
Actual Time 7:23 AM EDT 6:08 PM EDT
Civil Twilight 6:55 AM EDT 6:36 PM EDT
Nautical Twilight 6:23 AM EDT 7:08 PM EDT
Astronomical Twilight 5:52 AM EDT 7:39 PM EDT
Moon 5:52 AM EDT (10/25) 5:08 PM EDT (10/25)
Length of Visible Light 11h 40m
Length of Day
10h 45m
Waning Crescent, 2% of the Moon is Illuminated
Oct 25
Waning Crescent
Oct 26
New
Nov 2
First Quarter
Nov 10
Full
Nov 18
Last Quarter

Hourly Weather History & Observations

Time (EDT) Temp. Dew Point Humidity Pressure Visibility Wind Dir Wind Speed Gust Speed Precip Events Conditions
12:18 AM 51.8 °F 48.2 °F 88% 30.04 in 3.0 mi Calm Calm - N/A   Clear
12:36 AM 51.8 °F 48.2 °F 88% 30.04 in 2.5 mi WSW 4.6 mph - N/A   Clear
12:43 AM 51.8 °F 48.2 °F 88% 30.04 in 3.0 mi WSW 3.5 mph - N/A   Clear
12:54 AM 51.1 °F 48.0 °F 89% 30.03 in 4.0 mi Calm Calm - N/A   Clear
1:54 AM 50.0 °F 46.0 °F 86% 30.04 in 6.0 mi WNW 5.8 mph - N/A   Clear
2:54 AM 50.0 °F 46.0 °F 86% 30.04 in 5.0 mi Calm Calm - 0.01 in   Clear
3:23 AM 46.4 °F 44.6 °F 93% 30.05 in 2.5 mi Calm Calm - N/A   Clear
3:32 AM 48.2 °F 44.6 °F 87% 30.04 in 4.0 mi Calm Calm - N/A   Clear
3:54 AM 48.9 °F 45.0 °F 86% 30.03 in 5.0 mi Calm Calm - N/A   Clear
4:54 AM 48.0 °F 44.1 °F 86% 30.04 in 7.0 mi WNW 3.5 mph - N/A   Clear
5:54 AM 46.9 °F 42.1 °F 83% 30.06 in 9.0 mi WNW 3.5 mph - N/A   Clear
6:54 AM 46.9 °F 41.0 °F 80% 30.09 in 9.0 mi WNW 4.6 mph - N/A   Clear
7:54 AM 48.0 °F 39.9 °F 74% 30.12 in 10.0 mi Calm Calm - N/A   Clear
8:54 AM 51.1 °F 41.0 °F 68% 30.14 in 10.0 mi Variable 4.6 mph - N/A   Clear
9:54 AM 54.0 °F 39.9 °F 59% 30.14 in 10.0 mi WNW 8.1 mph - N/A   Clear
10:54 AM 55.9 °F 36.0 °F 47% 30.12 in 10.0 mi WNW 11.5 mph 18.4 mph N/A   Clear
11:54 AM 59.0 °F 36.0 °F 42% 30.12 in 10.0 mi WNW 8.1 mph 17.3 mph N/A   Clear
12:54 PM 60.1 °F 35.1 °F 39% 30.10 in 10.0 mi West 11.5 mph 20.7 mph N/A   Clear
1:54 PM 62.1 °F 35.1 °F 37% 30.08 in 10.0 mi NW 11.5 mph 24.2 mph N/A   Clear
2:54 PM 63.0 °F 35.1 °F 35% 30.06 in 10.0 mi WNW 11.5 mph 21.9 mph N/A   Clear
5:54 PM 60.1 °F 36.0 °F 41% 30.06 in 10.0 mi West 3.5 mph - N/A   Clear
7:54 PM 50.0 °F 39.0 °F 66% 30.07 in 9.0 mi Calm Calm - N/A   Clear
9:54 PM 48.9 °F 39.9 °F 71% 30.06 in 10.0 mi Calm Calm - N/A   Clear
10:54 PM 48.0 °F 39.9 °F 74% 30.06 in 10.0 mi Calm Calm - N/A   Clear